map of NDJ home
NDJ - Airport
Location
City:  N'Djamena, Chari-Baguirmi, Chad
ICAO:FTTJ
IATA:NDJ

Details
Type:Airport (Aerodrome, Airfield)
Use:Public/Civil, Military, International (customs port of entry)
Latitude:1208'01"N (12.133689)
Longitude:1502'02"E (15.034019)
Datum:WGS 1984
Elevation:968 ft (295 m)
Variation:1.22E (WMM2015 magnetic declination)
0.10 annual change
Runways:1
Longest:9186 × 148 ft (2800 × 45 m), paved

Time
Time Zone:UTC+1
Local Time:

Weather
METAR:FTTJ 230200Z 36002KT CAVOK 29/06 Q1005 NOSIG
TAF:FTTJ 222300Z 2300/2406 32004KT 8000 NSC
TEMPO 2308/2316 26010KT

Related Locations
Nearby:
Farthest:MHX: 12151 mi / 19556 km
Manihiki Island (Manuhiki, Tapuahua, Humphrey Island), CK

Find:

   beyond  
but within

Other Information
Maps:
NOTAMs:
Links:
Sources:

  
flag of Chad   

Sectional Chart

Flight Planning
at skyvector.com

Satellite Image

Google Maps Satellite view

 

Copyright © 2004-2018 Karl L. Swartz. All rights reserved.
The Great Circle Mapper name and logo are trademarks of the Great Circle Mapper.
All other trademarks mentioned herein belong to their respective owners.
Please see credits for attibutions and further copyright information.

  Follow gcmap on Facebook Follow gcmap on Twitter Follow gcmap on Google+ GCmap on LinkedIn

hCard Microformat

Geo Microformat